Year,Month,Day,Hour,Minute,Value (Times are PST for temperature in C)
2008,02,13,00,00,4.70
2008,02,13,00,01,4.70
2008,02,13,00,02,4.70
2008,02,13,00,03,4.60
2008,02,13,00,04,4.60
2008,02,13,00,05,4.60
2008,02,13,00,06,4.60
2008,02,13,00,07,4.60
2008,02,13,00,08,4.60
2008,02,13,00,09,4.60
2008,02,13,00,10,4.70
2008,02,13,00,11,4.70
2008,02,13,00,12,4.70
2008,02,13,00,13,4.80
2008,02,13,00,14,4.80
2008,02,13,00,15,4.80
2008,02,13,00,16,4.80
2008,02,13,00,17,4.80
2008,02,13,00,18,4.70
2008,02,13,00,19,4.70
2008,02,13,00,20,4.70
2008,02,13,00,21,4.70
2008,02,13,00,22,4.70
2008,02,13,00,23,4.70
2008,02,13,00,24,4.70
2008,02,13,00,25,4.70
2008,02,13,00,26,4.70
2008,02,13,00,27,4.70
2008,02,13,00,28,4.70
2008,02,13,00,29,4.60
2008,02,13,00,30,4.60
2008,02,13,00,31,4.60
2008,02,13,00,32,4.60
2008,02,13,00,33,4.50
2008,02,13,00,34,4.50
2008,02,13,00,35,4.50
2008,02,13,00,36,4.50
2008,02,13,00,37,4.40
2008,02,13,00,38,4.40
2008,02,13,00,39,4.40
2008,02,13,00,40,4.40
2008,02,13,00,41,4.30
2008,02,13,00,42,4.30
2008,02,13,00,43,4.30
2008,02,13,00,44,4.30
2008,02,13,00,45,4.30
2008,02,13,00,46,4.30
2008,02,13,00,47,4.30
2008,02,13,00,48,4.30
2008,02,13,00,49,4.30
2008,02,13,00,50,4.30
2008,02,13,00,51,4.30
2008,02,13,00,52,4.30
2008,02,13,00,53,4.40
2008,02,13,00,54,4.40
2008,02,13,00,55,4.40
2008,02,13,00,56,4.40
2008,02,13,00,57,4.40
2008,02,13,00,58,4.40
2008,02,13,00,59,4.40
2008,02,13,01,00,4.50
2008,02,13,01,01,4.40
2008,02,13,01,02,4.40
2008,02,13,01,03,4.40
2008,02,13,01,04,4.40
2008,02,13,01,05,4.40
2008,02,13,01,06,4.40
2008,02,13,01,07,4.50
2008,02,13,01,08,4.50
2008,02,13,01,09,4.50
2008,02,13,01,10,4.50
2008,02,13,01,11,4.50
2008,02,13,01,12,4.50
2008,02,13,01,13,4.50
2008,02,13,01,14,4.50
2008,02,13,01,15,4.50
2008,02,13,01,16,4.50
2008,02,13,01,17,4.50
2008,02,13,01,18,4.50
2008,02,13,01,19,4.50
2008,02,13,01,20,4.50
2008,02,13,01,21,4.50
2008,02,13,01,22,4.60
2008,02,13,01,23,4.60
2008,02,13,01,24,4.60
2008,02,13,01,25,4.60
2008,02,13,01,26,4.50
2008,02,13,01,27,4.50
2008,02,13,01,28,4.50
2008,02,13,01,29,4.50
2008,02,13,01,30,4.50
2008,02,13,01,31,4.60
2008,02,13,01,32,4.60
2008,02,13,01,33,4.70
2008,02,13,01,34,4.70
2008,02,13,01,35,4.70
2008,02,13,01,36,4.70
2008,02,13,01,37,4.60
2008,02,13,01,38,4.60
2008,02,13,01,39,4.60
2008,02,13,01,40,4.60
2008,02,13,01,41,4.60
2008,02,13,01,42,4.60
2008,02,13,01,43,4.60
2008,02,13,01,44,4.60
2008,02,13,01,45,4.60
2008,02,13,01,46,4.60
2008,02,13,01,47,4.60
2008,02,13,01,48,4.50
2008,02,13,01,49,4.50
2008,02,13,01,50,4.50
2008,02,13,01,51,4.50
2008,02,13,01,52,4.40
2008,02,13,01,53,4.40
2008,02,13,01,54,4.40
2008,02,13,01,55,4.40
2008,02,13,01,56,4.40
2008,02,13,01,57,4.40
2008,02,13,01,58,4.40
2008,02,13,01,59,4.40
2008,02,13,02,00,4.40
2008,02,13,02,01,4.40
2008,02,13,02,02,4.40
2008,02,13,02,03,4.40
2008,02,13,02,04,4.40
2008,02,13,02,05,4.40
2008,02,13,02,06,4.40
2008,02,13,02,07,4.40
2008,02,13,02,08,4.30
2008,02,13,02,09,4.30
2008,02,13,02,10,4.30
2008,02,13,02,11,4.30
2008,02,13,02,12,4.30
2008,02,13,02,13,4.30
2008,02,13,02,14,4.30
2008,02,13,02,15,4.30
2008,02,13,02,16,4.30
2008,02,13,02,17,4.30
2008,02,13,02,18,4.30
2008,02,13,02,19,4.30
2008,02,13,02,20,4.30
2008,02,13,02,21,4.30
2008,02,13,02,22,4.30
2008,02,13,02,23,4.30
2008,02,13,02,24,4.30
2008,02,13,02,25,4.30
2008,02,13,02,26,4.30
2008,02,13,02,27,4.30
2008,02,13,02,28,4.30
2008,02,13,02,29,4.30
2008,02,13,02,30,4.30
2008,02,13,02,31,4.30
2008,02,13,02,32,4.20
2008,02,13,02,33,4.20
2008,02,13,02,34,4.20
2008,02,13,02,35,4.20
2008,02,13,02,36,4.20
2008,02,13,02,37,4.20
2008,02,13,02,38,4.20
2008,02,13,02,39,4.10
2008,02,13,02,40,4.10
2008,02,13,02,41,4.10
2008,02,13,02,42,4.10
2008,02,13,02,43,4.10
2008,02,13,02,44,4.10
2008,02,13,02,45,4.10
2008,02,13,02,46,4.10
2008,02,13,02,47,4.10
2008,02,13,02,48,4.10
2008,02,13,02,49,4.10
2008,02,13,02,50,4.10
2008,02,13,02,51,4.10
2008,02,13,02,52,4.10
2008,02,13,02,53,4.10
2008,02,13,02,54,4.10
2008,02,13,02,55,4.10
2008,02,13,02,56,4.10
2008,02,13,02,57,4.10
2008,02,13,02,58,4.10
2008,02,13,02,59,4.10
2008,02,13,03,00,4.10
2008,02,13,03,01,4.10
2008,02,13,03,02,4.10
2008,02,13,03,03,4.10
2008,02,13,03,04,4.10
2008,02,13,03,05,4.10
2008,02,13,03,06,4.10
2008,02,13,03,07,4.10
2008,02,13,03,08,4.10
2008,02,13,03,09,4.10
2008,02,13,03,10,4.10
2008,02,13,03,11,4.10
2008,02,13,03,12,4.10
2008,02,13,03,13,4.10
2008,02,13,03,14,4.10
2008,02,13,03,15,4.10
2008,02,13,03,16,4.10
2008,02,13,03,17,4.10
2008,02,13,03,18,4.10
2008,02,13,03,19,4.10
2008,02,13,03,20,4.10
2008,02,13,03,21,4.10
2008,02,13,03,22,4.10
2008,02,13,03,23,4.10
2008,02,13,03,24,4.10
2008,02,13,03,25,4.10
2008,02,13,03,26,4.10
2008,02,13,03,27,4.10
2008,02,13,03,28,4.10
2008,02,13,03,29,4.00
2008,02,13,03,30,4.00
2008,02,13,03,31,4.00
2008,02,13,03,32,4.00
2008,02,13,03,33,4.00
2008,02,13,03,34,4.00
2008,02,13,03,35,3.90
2008,02,13,03,36,3.90
2008,02,13,03,37,3.90
2008,02,13,03,38,3.90
2008,02,13,03,39,3.90
2008,02,13,03,40,3.90
2008,02,13,03,41,3.90
2008,02,13,03,42,3.90
2008,02,13,03,43,3.90
2008,02,13,03,44,3.90
2008,02,13,03,45,3.90
2008,02,13,03,46,3.90
2008,02,13,03,47,3.80
2008,02,13,03,48,3.80
2008,02,13,03,49,3.80
2008,02,13,03,50,3.80
2008,02,13,03,51,3.80
2008,02,13,03,52,3.80
2008,02,13,03,53,3.90
2008,02,13,03,54,3.90
2008,02,13,03,55,3.90
2008,02,13,03,56,3.90
2008,02,13,03,57,3.90
2008,02,13,03,58,3.90
2008,02,13,03,59,3.90
2008,02,13,04,00,3.90
2008,02,13,04,01,3.90
2008,02,13,04,02,3.90
2008,02,13,04,03,3.90
2008,02,13,04,04,3.80
2008,02,13,04,05,3.80
2008,02,13,04,06,3.80
2008,02,13,04,07,3.80
2008,02,13,04,08,3.80
2008,02,13,04,09,3.80
2008,02,13,04,10,3.80
2008,02,13,04,11,3.80
2008,02,13,04,12,3.80
2008,02,13,04,13,3.70
2008,02,13,04,14,3.70
2008,02,13,04,15,3.70
2008,02,13,04,16,3.60
2008,02,13,04,17,3.60
2008,02,13,04,18,3.60
2008,02,13,04,19,3.50
2008,02,13,04,20,3.50
2008,02,13,04,21,3.40
2008,02,13,04,22,3.40
2008,02,13,04,23,3.40
2008,02,13,04,24,3.30
2008,02,13,04,25,3.30
2008,02,13,04,26,3.30
2008,02,13,04,27,3.30
2008,02,13,04,28,3.20
2008,02,13,04,29,3.20
2008,02,13,04,30,3.20
2008,02,13,04,31,3.20
2008,02,13,04,32,3.20
2008,02,13,04,33,3.20
2008,02,13,04,34,3.20
2008,02,13,04,35,3.20
2008,02,13,04,36,3.20
2008,02,13,04,37,3.20
2008,02,13,04,38,3.20
2008,02,13,04,39,3.20
2008,02,13,04,40,3.20
2008,02,13,04,41,3.20
2008,02,13,04,42,3.20
2008,02,13,04,43,3.20
2008,02,13,04,44,3.20
2008,02,13,04,45,3.20
2008,02,13,04,46,3.20
2008,02,13,04,47,3.20
2008,02,13,04,48,3.20
2008,02,13,04,49,3.20
2008,02,13,04,50,3.20
2008,02,13,04,51,3.10
2008,02,13,04,52,3.00
2008,02,13,04,53,3.00
2008,02,13,04,54,2.90
2008,02,13,04,55,2.90
2008,02,13,04,56,2.80
2008,02,13,04,57,2.70
2008,02,13,04,58,2.70
2008,02,13,04,59,2.60
2008,02,13,05,00,2.60
2008,02,13,05,01,2.50
2008,02,13,05,02,2.40
2008,02,13,05,03,2.30
2008,02,13,05,04,2.30
2008,02,13,05,05,2.30
2008,02,13,05,06,2.20
2008,02,13,05,07,2.20
2008,02,13,05,08,2.40
2008,02,13,05,09,2.50
2008,02,13,05,10,2.50
2008,02,13,05,11,2.60
2008,02,13,05,12,2.70
2008,02,13,05,13,2.80
2008,02,13,05,14,2.90
2008,02,13,05,15,3.00
2008,02,13,05,16,3.00
2008,02,13,05,17,3.10
2008,02,13,05,18,3.10
2008,02,13,05,19,3.20
2008,02,13,05,20,3.20
2008,02,13,05,21,3.20
2008,02,13,05,22,3.20
2008,02,13,05,23,3.30
2008,02,13,05,24,3.30
2008,02,13,05,25,3.30
2008,02,13,05,26,3.30
2008,02,13,05,27,3.30
2008,02,13,05,28,3.30
2008,02,13,05,29,3.30
2008,02,13,05,30,3.20
2008,02,13,05,31,3.20
2008,02,13,05,32,3.20
2008,02,13,05,33,3.20
2008,02,13,05,34,3.20
2008,02,13,05,35,3.20
2008,02,13,05,36,3.20
2008,02,13,05,37,3.20
2008,02,13,05,38,3.10
2008,02,13,05,39,3.10
2008,02,13,05,40,3.10
2008,02,13,05,41,3.00
2008,02,13,05,42,2.90
2008,02,13,05,43,2.80
2008,02,13,05,44,2.80
2008,02,13,05,45,2.70
2008,02,13,05,46,2.70
2008,02,13,05,47,2.60
2008,02,13,05,48,2.60
2008,02,13,05,49,2.50
2008,02,13,05,50,2.40
2008,02,13,05,51,2.30
2008,02,13,05,52,2.30
2008,02,13,05,53,2.20
2008,02,13,05,54,2.20
2008,02,13,05,55,2.10
2008,02,13,05,56,2.00
2008,02,13,05,57,2.00
2008,02,13,05,58,1.90
2008,02,13,05,59,1.90
2008,02,13,06,00,1.90
2008,02,13,06,01,1.90
2008,02,13,06,02,1.80
2008,02,13,06,03,1.80
2008,02,13,06,04,1.80
2008,02,13,06,05,1.80
2008,02,13,06,06,1.70
2008,02,13,06,07,1.70
2008,02,13,06,08,1.70
2008,02,13,06,09,1.70
2008,02,13,06,10,1.70
2008,02,13,06,11,1.70
2008,02,13,06,12,1.80
2008,02,13,06,13,1.90
2008,02,13,06,14,2.00
2008,02,13,06,15,2.10
2008,02,13,06,16,2.10
2008,02,13,06,17,2.20
2008,02,13,06,18,2.30
2008,02,13,06,19,2.40
2008,02,13,06,20,2.50
2008,02,13,06,21,2.60
2008,02,13,06,22,2.70
2008,02,13,06,23,2.70
2008,02,13,06,24,2.70
2008,02,13,06,25,2.70
2008,02,13,06,26,2.80
2008,02,13,06,27,2.80
2008,02,13,06,28,2.80
2008,02,13,06,29,2.80
2008,02,13,06,30,2.80
2008,02,13,06,31,2.80
2008,02,13,06,32,2.80
2008,02,13,06,33,2.80
2008,02,13,06,34,2.80
2008,02,13,06,35,2.80
2008,02,13,06,36,2.80
2008,02,13,06,37,2.90
2008,02,13,06,38,2.90
2008,02,13,06,39,2.90
2008,02,13,06,40,2.90
2008,02,13,06,41,3.00
2008,02,13,06,42,3.00
2008,02,13,06,43,3.10
2008,02,13,06,44,3.10
2008,02,13,06,45,3.20
2008,02,13,06,46,3.20
2008,02,13,06,47,3.20
2008,02,13,06,48,3.30
2008,02,13,06,49,3.30
2008,02,13,06,50,3.30
2008,02,13,06,51,3.30
2008,02,13,06,52,3.30
2008,02,13,06,53,3.30
2008,02,13,06,54,3.30
2008,02,13,06,55,3.30
2008,02,13,06,56,3.30
2008,02,13,06,57,3.30
2008,02,13,06,58,3.30
2008,02,13,06,59,3.30
2008,02,13,07,00,3.30
2008,02,13,07,01,3.30
2008,02,13,07,02,3.20
2008,02,13,07,03,3.20
2008,02,13,07,04,3.20
2008,02,13,07,05,3.20
2008,02,13,07,06,3.10
2008,02,13,07,07,3.10
2008,02,13,07,08,3.10
2008,02,13,07,09,3.00
2008,02,13,07,10,3.00
2008,02,13,07,11,3.00
2008,02,13,07,12,2.90
2008,02,13,07,13,2.90
2008,02,13,07,14,2.80
2008,02,13,07,15,2.80
2008,02,13,07,16,2.90
2008,02,13,07,17,2.80
2008,02,13,07,18,2.90
2008,02,13,07,19,2.80
2008,02,13,07,20,2.80
2008,02,13,07,21,2.80
2008,02,13,07,22,2.80
2008,02,13,07,23,2.70
2008,02,13,07,24,2.60
2008,02,13,07,25,2.50
2008,02,13,07,26,2.40
2008,02,13,07,27,2.30
2008,02,13,07,28,2.20
2008,02,13,07,29,2.10
2008,02,13,07,30,2.00
2008,02,13,07,31,1.90
2008,02,13,07,32,1.80
2008,02,13,07,33,1.70
2008,02,13,07,34,1.70
2008,02,13,07,35,1.60
2008,02,13,07,36,1.50
2008,02,13,07,37,1.40
2008,02,13,07,38,1.30
2008,02,13,07,39,1.30
2008,02,13,07,40,1.30
2008,02,13,07,41,1.30
2008,02,13,07,42,1.20
2008,02,13,07,43,1.20
2008,02,13,07,44,1.20
2008,02,13,07,45,1.20
2008,02,13,07,46,1.20
2008,02,13,07,47,1.20
2008,02,13,07,48,1.30
2008,02,13,07,49,1.30
2008,02,13,07,50,1.40
2008,02,13,07,51,1.60
2008,02,13,07,52,1.70
2008,02,13,07,53,1.80
2008,02,13,07,54,1.90
2008,02,13,07,55,2.00
2008,02,13,07,56,2.00
2008,02,13,07,57,2.20
2008,02,13,07,58,2.30
2008,02,13,07,59,2.30
2008,02,13,08,00,2.30
2008,02,13,08,01,2.40
2008,02,13,08,02,2.50
2008,02,13,08,03,2.60
2008,02,13,08,04,2.60
2008,02,13,08,05,2.60
2008,02,13,08,06,2.60
2008,02,13,08,07,2.60
2008,02,13,08,08,2.60
2008,02,13,08,09,2.60
2008,02,13,08,10,2.60
2008,02,13,08,11,2.70
2008,02,13,08,12,2.80
2008,02,13,08,13,2.90
2008,02,13,08,14,3.00
2008,02,13,08,15,3.10
2008,02,13,08,16,3.20
2008,02,13,08,17,3.20
2008,02,13,08,18,3.30
2008,02,13,08,19,3.30
2008,02,13,08,20,3.40
2008,02,13,08,21,3.40
2008,02,13,08,22,3.50
2008,02,13,08,23,3.60
2008,02,13,08,24,3.60
2008,02,13,08,25,3.70
2008,02,13,08,26,3.70
2008,02,13,08,27,3.80
2008,02,13,08,28,3.80
2008,02,13,08,29,3.80
2008,02,13,08,30,3.90
2008,02,13,08,31,3.90
2008,02,13,08,32,4.00
2008,02,13,08,33,4.00
2008,02,13,08,34,4.00
2008,02,13,08,35,4.10
2008,02,13,08,36,4.10
2008,02,13,08,37,4.10
2008,02,13,08,38,4.10
2008,02,13,08,39,4.00
2008,02,13,08,40,4.00
2008,02,13,08,41,4.00
2008,02,13,08,42,4.00
2008,02,13,08,43,4.10
2008,02,13,08,44,4.10
2008,02,13,08,45,4.10
2008,02,13,08,46,4.10
2008,02,13,08,47,4.10
2008,02,13,08,48,4.10
2008,02,13,08,49,4.10
2008,02,13,08,50,4.10
2008,02,13,08,51,4.10
2008,02,13,08,52,4.10
2008,02,13,08,53,4.20
2008,02,13,08,54,4.20
2008,02,13,08,55,4.20
2008,02,13,08,56,4.20
2008,02,13,08,57,4.20
2008,02,13,08,58,4.20
2008,02,13,08,59,4.30
2008,02,13,09,00,4.30
2008,02,13,09,01,4.40
2008,02,13,09,02,4.40
2008,02,13,09,03,4.50
2008,02,13,09,04,4.60
2008,02,13,09,05,4.60
2008,02,13,09,06,4.60
2008,02,13,09,07,4.70
2008,02,13,09,08,4.70
2008,02,13,09,09,4.80
2008,02,13,09,10,4.80
2008,02,13,09,11,4.80
2008,02,13,09,12,4.90
2008,02,13,09,13,4.90
2008,02,13,09,14,4.90
2008,02,13,09,15,4.90
2008,02,13,09,16,4.90
2008,02,13,09,17,5.00
2008,02,13,09,18,5.00
2008,02,13,09,19,5.00
2008,02,13,09,20,5.10
2008,02,13,09,21,5.10
2008,02,13,09,22,5.10
2008,02,13,09,23,5.10
2008,02,13,09,24,5.20
2008,02,13,09,25,5.20
2008,02,13,09,26,5.30
2008,02,13,09,27,5.30
2008,02,13,09,28,5.30
2008,02,13,09,29,5.30
2008,02,13,09,30,5.40
2008,02,13,09,31,5.40
2008,02,13,09,32,5.50
2008,02,13,09,33,5.50
2008,02,13,09,34,5.60
2008,02,13,09,35,5.60
2008,02,13,09,36,5.60
2008,02,13,09,37,5.60
2008,02,13,09,38,5.60
2008,02,13,09,39,5.60
2008,02,13,09,40,5.70
2008,02,13,09,41,5.70
2008,02,13,09,42,5.70
2008,02,13,09,43,5.80
2008,02,13,09,44,5.80
2008,02,13,09,45,5.80
2008,02,13,09,46,5.80
2008,02,13,09,47,5.80
2008,02,13,09,48,5.80
2008,02,13,09,49,5.90
2008,02,13,09,50,5.90
2008,02,13,09,51,5.90
2008,02,13,09,52,6.00
2008,02,13,09,53,6.00
2008,02,13,09,54,6.10
2008,02,13,09,55,6.10
2008,02,13,09,56,6.10
2008,02,13,09,57,6.20
2008,02,13,09,58,6.20
2008,02,13,09,59,6.30
2008,02,13,10,00,6.30
2008,02,13,10,01,6.40
2008,02,13,10,02,6.40
2008,02,13,10,03,6.40
2008,02,13,10,04,6.50
2008,02,13,10,05,6.50
2008,02,13,10,06,6.60
2008,02,13,10,07,6.60
2008,02,13,10,08,6.60
2008,02,13,10,09,6.60
2008,02,13,10,10,6.60
2008,02,13,10,11,6.60
2008,02,13,10,12,6.60
2008,02,13,10,13,6.60
2008,02,13,10,14,6.60
2008,02,13,10,15,6.60
2008,02,13,10,16,6.60
2008,02,13,10,17,6.70
2008,02,13,10,18,6.70
2008,02,13,10,19,6.70
2008,02,13,10,20,6.70
2008,02,13,10,21,6.70
2008,02,13,10,22,6.80
2008,02,13,10,23,6.80
2008,02,13,10,24,6.80
2008,02,13,10,25,6.80
2008,02,13,10,26,6.80
2008,02,13,10,27,6.80
2008,02,13,10,28,6.80
2008,02,13,10,29,6.80
2008,02,13,10,30,6.80
2008,02,13,10,31,6.80
2008,02,13,10,32,6.90
2008,02,13,10,33,6.90
2008,02,13,10,34,6.90
2008,02,13,10,35,7.00
2008,02,13,10,36,6.90
2008,02,13,10,37,6.90
2008,02,13,10,38,6.90
2008,02,13,10,39,6.90
2008,02,13,10,40,6.90
2008,02,13,10,41,6.90
2008,02,13,10,42,7.00
2008,02,13,10,43,7.10
2008,02,13,10,44,7.10
2008,02,13,10,45,7.20
2008,02,13,10,46,7.20
2008,02,13,10,47,7.20
2008,02,13,10,48,7.20
2008,02,13,10,49,7.20
2008,02,13,10,50,7.30
2008,02,13,10,51,7.20
2008,02,13,10,52,7.20
2008,02,13,10,53,7.20
2008,02,13,10,54,7.20
2008,02,13,10,55,7.20
2008,02,13,10,56,7.30
2008,02,13,10,57,7.30
2008,02,13,10,58,7.30
2008,02,13,10,59,7.30
2008,02,13,11,00,7.30
2008,02,13,11,01,7.30
2008,02,13,11,02,7.30
2008,02,13,11,03,7.30
2008,02,13,11,04,7.30
2008,02,13,11,05,7.30
2008,02,13,11,06,7.40
2008,02,13,11,07,7.40
2008,02,13,11,08,7.30
2008,02,13,11,09,7.30
2008,02,13,11,10,7.20
2008,02,13,11,11,7.20
2008,02,13,11,12,7.20
2008,02,13,11,13,7.30
2008,02,13,11,14,7.30
2008,02,13,11,15,7.30
2008,02,13,11,16,7.20
2008,02,13,11,17,7.30
2008,02,13,11,18,7.30
2008,02,13,11,19,7.30
2008,02,13,11,20,7.40
2008,02,13,11,21,7.40
2008,02,13,11,22,7.40
2008,02,13,11,23,7.40
2008,02,13,11,24,7.50
2008,02,13,11,25,7.40
2008,02,13,11,26,7.50
2008,02,13,11,27,7.50
2008,02,13,11,28,7.50
2008,02,13,11,29,7.50
2008,02,13,11,30,7.60
2008,02,13,11,31,7.60
2008,02,13,11,32,7.60
2008,02,13,11,33,7.60
2008,02,13,11,34,7.60
2008,02,13,11,35,7.60
2008,02,13,11,36,7.60
2008,02,13,11,37,7.60
2008,02,13,11,38,7.70
2008,02,13,11,39,7.70
2008,02,13,11,40,7.60
2008,02,13,11,41,7.60
2008,02,13,11,42,7.50
2008,02,13,11,43,7.50
2008,02,13,11,44,7.40
2008,02,13,11,45,7.40
2008,02,13,11,46,7.50
2008,02,13,11,47,7.50
2008,02,13,11,48,7.50
2008,02,13,11,49,7.60
2008,02,13,11,50,7.60
2008,02,13,11,51,7.60
2008,02,13,11,52,7.70
2008,02,13,11,53,7.70
2008,02,13,11,54,7.70
2008,02,13,11,55,7.70
2008,02,13,11,56,7.70
2008,02,13,11,57,7.70
2008,02,13,11,58,7.70
2008,02,13,11,59,7.80
2008,02,13,12,00,7.80
2008,02,13,12,01,7.80
2008,02,13,12,02,7.80
2008,02,13,12,03,7.80
2008,02,13,12,04,7.80
2008,02,13,12,05,7.80
2008,02,13,12,06,7.80
2008,02,13,12,07,7.80
2008,02,13,12,08,7.90
2008,02,13,12,09,8.00
2008,02,13,12,10,8.10
2008,02,13,12,11,8.20
2008,02,13,12,12,8.20
2008,02,13,12,13,8.30
2008,02,13,12,14,8.30
2008,02,13,12,15,8.30
2008,02,13,12,16,8.20
2008,02,13,12,17,8.10
2008,02,13,12,18,8.10
2008,02,13,12,19,8.20
2008,02,13,12,20,8.30
2008,02,13,12,21,8.30
2008,02,13,12,22,8.30
2008,02,13,12,23,8.40
2008,02,13,12,24,8.40
2008,02,13,12,25,8.30
2008,02,13,12,26,8.20
2008,02,13,12,27,8.10
2008,02,13,12,28,8.10
2008,02,13,12,29,8.00
2008,02,13,12,30,8.00
2008,02,13,12,31,7.90
2008,02,13,12,32,7.80
2008,02,13,12,33,7.80
2008,02,13,12,34,7.80
2008,02,13,12,35,7.70
2008,02,13,12,36,7.80
2008,02,13,12,37,7.70
2008,02,13,12,38,7.70
2008,02,13,12,39,7.70
2008,02,13,12,40,7.70
2008,02,13,12,41,7.70
2008,02,13,12,42,7.70
2008,02,13,12,43,7.60
2008,02,13,12,44,7.60
2008,02,13,12,45,7.60
2008,02,13,12,46,7.50
2008,02,13,12,47,7.50
2008,02,13,12,48,7.50
2008,02,13,12,49,7.50
2008,02,13,12,50,7.50
2008,02,13,12,51,7.40
2008,02,13,12,52,7.50
2008,02,13,12,53,7.50
2008,02,13,12,54,7.70
2008,02,13,12,55,7.80
2008,02,13,12,56,7.80
2008,02,13,12,57,7.90
2008,02,13,12,58,7.90
2008,02,13,12,59,7.90
2008,02,13,13,00,7.90
2008,02,13,13,01,8.00
2008,02,13,13,02,8.00
2008,02,13,13,03,7.90
2008,02,13,13,04,7.90
2008,02,13,13,05,7.90
2008,02,13,13,06,7.80
2008,02,13,13,07,7.80
2008,02,13,13,08,7.80
2008,02,13,13,09,7.70
2008,02,13,13,10,7.70
2008,02,13,13,11,7.70
2008,02,13,13,12,7.60
2008,02,13,13,13,7.60
2008,02,13,13,14,7.60
2008,02,13,13,15,7.60
2008,02,13,13,16,7.60
2008,02,13,13,17,7.60
2008,02,13,13,18,7.60
2008,02,13,13,19,7.60
2008,02,13,13,20,7.60
2008,02,13,13,21,7.50
2008,02,13,13,22,7.50
2008,02,13,13,23,7.50
2008,02,13,13,24,7.50
2008,02,13,13,25,7.50
2008,02,13,13,26,7.40
2008,02,13,13,27,7.40
2008,02,13,13,28,7.50
2008,02,13,13,29,7.50
2008,02,13,13,30,7.50
2008,02,13,13,31,7.50
2008,02,13,13,32,7.50
2008,02,13,13,33,7.40
2008,02,13,13,34,7.30
2008,02,13,13,35,7.30
2008,02,13,13,36,7.30
2008,02,13,13,37,7.20
2008,02,13,13,38,7.20
2008,02,13,13,39,7.20
2008,02,13,13,40,7.20
2008,02,13,13,41,7.20
2008,02,13,13,42,7.10
2008,02,13,13,43,7.10
2008,02,13,13,44,7.00
2008,02,13,13,45,7.00
2008,02,13,13,46,7.00
2008,02,13,13,47,6.90
2008,02,13,13,48,6.90
2008,02,13,13,49,6.90
2008,02,13,13,50,7.00
2008,02,13,13,51,7.00
2008,02,13,13,52,7.00
2008,02,13,13,53,7.10
2008,02,13,13,54,7.10
2008,02,13,13,55,7.00
2008,02,13,13,56,7.00
2008,02,13,13,57,7.00
2008,02,13,13,58,6.90
2008,02,13,13,59,7.00
2008,02,13,14,00,7.00
2008,02,13,14,01,6.90
2008,02,13,14,02,7.00
2008,02,13,14,03,7.00
2008,02,13,14,04,7.00
2008,02,13,14,05,6.90
2008,02,13,14,06,6.90
2008,02,13,14,07,7.00
2008,02,13,14,08,7.00
2008,02,13,14,09,7.00
2008,02,13,14,10,7.00
2008,02,13,14,11,7.10
2008,02,13,14,12,7.10
2008,02,13,14,13,7.10
2008,02,13,14,14,7.10
2008,02,13,14,15,7.20
2008,02,13,14,16,7.20
2008,02,13,14,17,7.20
2008,02,13,14,18,7.20
2008,02,13,14,19,7.20
2008,02,13,14,20,7.30
2008,02,13,14,21,7.30
2008,02,13,14,22,7.30
2008,02,13,14,23,7.30
2008,02,13,14,24,7.30
2008,02,13,14,25,7.30
2008,02,13,14,26,7.30
2008,02,13,14,27,7.30
2008,02,13,14,28,7.30
2008,02,13,14,29,7.30
2008,02,13,14,30,7.30
2008,02,13,14,31,7.30
2008,02,13,14,32,7.30
2008,02,13,14,33,7.30
2008,02,13,14,34,7.40
2008,02,13,14,35,7.40
2008,02,13,14,36,7.40
2008,02,13,14,37,7.40
2008,02,13,14,38,7.40
2008,02,13,14,39,7.30
2008,02,13,14,40,7.30
2008,02,13,14,41,7.30
2008,02,13,14,42,7.40
2008,02,13,14,43,7.40
2008,02,13,14,44,7.40
2008,02,13,14,45,7.40
2008,02,13,14,46,7.40
2008,02,13,14,47,7.40
2008,02,13,14,48,7.40
2008,02,13,14,49,7.40
2008,02,13,14,50,7.40
2008,02,13,14,51,7.40
2008,02,13,14,52,7.40
2008,02,13,14,53,7.40
2008,02,13,14,54,7.50
2008,02,13,14,55,7.50
2008,02,13,14,56,7.50
2008,02,13,14,57,7.50
2008,02,13,14,58,7.60
2008,02,13,14,59,7.60
2008,02,13,15,00,7.60
2008,02,13,15,01,7.50
2008,02,13,15,02,7.50
2008,02,13,15,03,7.50
2008,02,13,15,04,7.40
2008,02,13,15,05,7.40
2008,02,13,15,06,7.30
2008,02,13,15,07,7.20
2008,02,13,15,08,7.20
2008,02,13,15,09,7.20
2008,02,13,15,10,7.10
2008,02,13,15,11,7.10
2008,02,13,15,12,7.00
2008,02,13,15,13,7.00
2008,02,13,15,14,7.00
2008,02,13,15,15,7.00
2008,02,13,15,16,7.00
2008,02,13,15,17,7.00
2008,02,13,15,18,7.00
2008,02,13,15,19,7.00
2008,02,13,15,20,7.00
2008,02,13,15,21,7.00
2008,02,13,15,22,7.00
2008,02,13,15,23,7.00
2008,02,13,15,24,7.00
2008,02,13,15,25,7.00
2008,02,13,15,26,6.90
2008,02,13,15,27,6.90
2008,02,13,15,28,6.90
2008,02,13,15,29,6.90
2008,02,13,15,30,6.90
2008,02,13,15,31,6.90
2008,02,13,15,32,6.90
2008,02,13,15,33,6.90
2008,02,13,15,34,6.90
2008,02,13,15,35,6.90
2008,02,13,15,36,6.90
2008,02,13,15,37,6.90
2008,02,13,15,38,6.90
2008,02,13,15,39,6.90
2008,02,13,15,40,6.90
2008,02,13,15,41,7.00
2008,02,13,15,42,7.00
2008,02,13,15,43,7.00
2008,02,13,15,44,6.90
2008,02,13,15,45,7.00
2008,02,13,15,46,6.90
2008,02,13,15,47,6.90
2008,02,13,15,48,6.90
2008,02,13,15,49,6.90
2008,02,13,15,50,6.90
2008,02,13,15,51,6.80
2008,02,13,15,52,6.80
2008,02,13,15,53,6.80
2008,02,13,15,54,6.80
2008,02,13,15,55,6.80
2008,02,13,15,56,6.80
2008,02,13,15,57,6.80
2008,02,13,15,58,6.80
2008,02,13,15,59,6.80
2008,02,13,16,00,6.80
2008,02,13,16,01,6.80
2008,02,13,16,02,6.80
2008,02,13,16,03,6.80
2008,02,13,16,04,6.80
2008,02,13,16,05,6.80
2008,02,13,16,06,6.70
2008,02,13,16,07,6.70
2008,02,13,16,08,6.70
2008,02,13,16,09,6.70
2008,02,13,16,10,6.70
2008,02,13,16,11,6.60
2008,02,13,16,12,6.60
2008,02,13,16,13,6.60
2008,02,13,16,14,6.60
2008,02,13,16,15,6.60
2008,02,13,16,16,6.60
2008,02,13,16,17,6.60
2008,02,13,16,18,6.60
2008,02,13,16,19,6.60
2008,02,13,16,20,6.60
2008,02,13,16,21,6.60
2008,02,13,16,22,6.60
2008,02,13,16,23,6.60
2008,02,13,16,24,6.60
2008,02,13,16,25,6.50
2008,02,13,16,26,6.50
2008,02,13,16,27,6.50
2008,02,13,16,28,6.50
2008,02,13,16,29,6.50
2008,02,13,16,30,6.40
2008,02,13,16,31,6.40
2008,02,13,16,32,6.40
2008,02,13,16,33,6.40
2008,02,13,16,34,6.30
2008,02,13,16,35,6.30
2008,02,13,16,36,6.30
2008,02,13,16,37,6.30
2008,02,13,16,38,6.30
2008,02,13,16,39,6.30
2008,02,13,16,40,6.30
2008,02,13,16,41,6.30
2008,02,13,16,42,6.30
2008,02,13,16,43,6.30
2008,02,13,16,44,6.30
